sat.trackr.live / text

‹ back to catalog

STARLINK-32597

NORAD 62304 · 2024-239D

PAYLOAD ACTIVE UNKNOWN

§ Identity

Operator
Country
US
Launch date
2024-12-13
Launch site
AFWTR
Launch vehicle
Mass (kg)
RCS (m²)

Purposes: comms

External: N2YO · Heavens-Above · Gunter

§ Orbital elements

Epoch: 2026-05-24T20:28:09.188832Z

Period
94.11 min
Inclination
53.1588°
Eccentricity
0.0001134
Mean motion
15.30202009 rev/d
Perigee alt
474.4 km
Apogee alt
476.0 km
Semi-major
6,853.3 km
B*
6.6561e-4
RAAN
187.4530°
Arg perigee
82.5438°
Mean anomaly
277.5691°
Rev number
8,122

§ Raw data

STARLINK-325971 62304U 24239D   26144.85288413  .00019407  00000+0  66561-3 0  99982 62304  53.1588 187.4530 0001134  82.5438 277.5691 15.30202009 81226

JSON: /api/v1/satellites/62304 · /tle

For live sub-satellite position, see the globe view (requires WebGL).

§ Visibility from observer

Set your observer location to see the next 7 days of passes ≥ 10°. The values pass through the URL so the page stays shareable.

No JS? Fill the form by hand. The geolocation button needs JavaScript.